ZACUBE-2

Last updated on Wed Apr 24 2024 00:03:34 GMT+0000 (Coordinated Universal Time)

1 43907U 18111AH 24114.55956824 .07768979 23640-5 98854-3 0 9991 2 43907 97.0553 358.6427 0008631 216.8977 143.1728 16.35893176297639
UTC large
Height (km)
Speed (km/s)
/
Latitude / Longitude
Inclination (degrees)
Orbital Period (minutes)
Azimuth
Elevation
Range (km)
Doppler Factor

Next 0 passes for location: London (51.5072 / 0.1276)

Sorry there are no passes over London.